RH
93 92 93 94 92 88 81 73 66 59 55 51 47 45 45 45 43 42 40 39 37 33 32 31 31 33 38 45 48 50 54 59 61 64 68 77 87 91 91 87 83 80 77 75 75 77 76 75 73 72 71 68 63 60 59 58 61 61 62 64 69 73 69 68 69 67 67 65 64 64 64 64 65 67 70 69 69 70 70 68 67 64 64 64 63 61 61 64 65 64 61 60 59 57 55 54 51
96 95 95 92 90 86 78 71 64 58 55 50 47 47 48 46 44 43 40 39 37 35 34 34 33 33 35 40 46 49 51 55 57 59 62 69 79 85 85 81 78 76 77 77 78 79 78 76 75 77 77 77 74 69 64 61 61 59 57 58 63 70 72 73 73 69 68 67 67 67 66 67 67 67 68 69 69 71 71 68 65 63 62 64 65 63 61 63 66 67 67 66 67 67 66 63 59
99 99 96 93 88 82 75 69 66 62 56 50 49 50 50 49 48 46 43 41 38 36 35 35 36 37 36 36 40 46 51 53 55 57 58 61 66 72 71 68 66 66 67 69 72 74 75 73 73 75 75 77 78 77 74 70 69 63 55 53 57 62 68 72 70 66 64 65 64 64 65 66 67 68 68 69 70 72 72 71 69 66 64 63 65 65 62 59 60 62 65 67 68 69 69 67 63
99 99 95 92 86 78 73 70 69 65 58 53 52 52 51 51 50 48 46 44 42 40 39 40 42 44 44 42 40 42 47 52 55 56 57 57 57 59 58 56 54 54 55 57 59 62 65 65 65 66 67 68 70 73 75 74 75 73 62 54 58 62 63 65 64 64 62 61 60 59 61 61 63 65 66 67 68 70 71 72 72 71 69 66 65 67 66 61 57 56 59 62 63 65 67 66 64
99 98 94 90 83 74 71 70 69 67 61 58 59 59 57 54 51 47 45 43 42 41 41 42 45 47 48 50 48 46 47 50 54 54 54 53 52 52 51 50 48 48 48 48 49 50 53 55 56 58 60 59 61 64 67 71 74 76 71 63 65 67 66 65 66 69 65 60 59 57 56 56 59 60 61 62 61 63 66 68 71 72 73 72 69 67 65 62 58 57 59 61 61 62 62 62 62
101 98 93 89 82 73 70 68 66 64 61 62 66 68 68 65 57 49 45 43 42 41 40 40 41 42 44 47 49 50 50 50 53 54 54 52 51 49 47 46 45 44 43 42 43 43 46 48 50 53 56 57 58 60 63 67 72 74 74 70 69 67 64 61 60 61 58 54 53 52 51 51 53 54 55 55 54 55 57 60 63 66 70 73 74 72 67 62 57 55 58 61 63 64 64 63 62
105 100 93 86 79 74 71 67 63 60 59 62 67 72 77 80 75 66 60 57 54 51 48 46 44 42 42 42 43 46 48 50 51 52 53 52 50 48 46 44 42 40 39 38 38 38 40 41 43 46 48 52 54 57 60 62 65 69 69 68 66 63 60 57 55 53 50 48 47 48 47 48 49 51 51 51 51 51 52 54 56 58 61 64 68 70 68 64 59 55 54 56 58 62 65 67 67
105 100 93 87 81 77 72 67 62 60 60 60 63 68 76 84 86 84 81 78 75 72 67 64 59 57 54 47 43 42 43 46 48 50 51 51 50 47 45 42 40 38 35 34 33 33 34 34 35 37 38 41 44 47 51 52 55 58 59 59 58 56 52 50 51 50 47 46 46 46 47 48 49 52 53 53 52 51 51 51 52 52 53 55 57 59 61 60 58 56 54 52 52 54 57 61 63
105 101 96 88 83 79 73 68 64 61 60 60 62 65 71 77 81 84 85 85 83 81 79 77 74 73 71 66 61 55 50 48 46 46 46 47 47 45 44 42 40 37 35 33 31 30 29 29 29 30 32 32 34 37 39 42 45 47 48 49 50 51 49 45 45 45 44 44 43 43 43 44 47 51 55 55 54 52 50 49 49 49 49 50 51 51 53 53 53 52 51 50 49 48 49 51 54
104 104 102 94 87 81 76 71 68 65 63 62 61 62 64 66 68 70 71 70 67 66 64 62 60 60 61 62 64 63 62 61 58 55 52 49 48 45 44 42 41 39 38 36 35 33 30 28 27 26 27 28 29 30 32 34 37 38 39 40 41 44 44 42 40 40 40 39 38 37 36 36 38 43 48 52 53 52 50 47 45 45 45 46 47 47 47 48 48 48 47 47 46 45 44 44 46
101 102 103 101 96 91 86 82 78 77 74 70 67 63 62 61 60 59 57 54 50 48 46 43 40 39 39 40 43 45 47 50 52 55 56 56 56 54 52 50 48 44 41 39 38 39 37 33 31 28 27 28 28 27 28 30 32 33 33 34 35 36 37 38 37 37 36 35 33 31 30 29 30 32 37 42 46 48 49 46 43 41 41 42 43 44 44 45 45 45 45 45 44 44 43 42 42
100 100 101 101 101 99 96 95 93 92 91 87 82 76 72 69 66 63 60 56 53 49 47 46 44 44 43 43 43 42 41 39 39 41 44 47 50 52 54 55 54 52 49 45 41 41 41 39 36 33 29 30 30 28 27 28 30 31 31 30 30 30 31 32 33 33 32 32 30 28 27 25 25 26 28 31 36 40 43 43 40 37 35 35 36 37 39 41 42 43 43 43 43 43 42 41 41
101 100 101 102 104 103 101 102 101 100 100 98 95 91 88 86 83 80 78 76 74 71 70 69 68 67 66 65 61 57 52 46 42 40 39 39 39 40 41 42 44 45 45 45 42 41 41 40 38 36 34 33 33 31 30 31 31 30 30 29 29 29 28 27 28 28 28 29 28 27 26 24 24 23 24 26 29 33 36 37 36 33 30 29 29 30 32 34 36 38 39 40 40 41 41 40 39
100 100 101 104 104 102 101 102 101 101 102 101 101 101 98 98 97 94 92 90 88 85 83 81 79 76 73 69 64 60 55 51 47 44 43 41 39 37 35 34 33 33 33 33 33 33 33 34 34 34 34 33 33 32 32 33 32 31 30 29 29 28 27 25 24 24 24 24 24 24 24 23 23 23 24 25 26 28 29 31 31 29 27 25 25 25 26 27 29 31 33 34 35 36 37 37 37
101 101 101 102 102 101 101 101 101 102 102 102 102 103 100 98 97 93 90 86 82 79 75 72 70 67 64 61 59 58 56 54 52 50 49 47 44 41 37 34 32 30 29 28 27 27 26 26 26 26 26 26 27 26 26 27 27 28 28 27 27 26 26 24 23 22 21 20 21 21 20 20 21 21 22 22 22 23 23 24 24 24 23 22 22 22 22 23 23 24 25 27 28 29 31 32 33
101 101 101 101 102 101 100 99 99 98 97 96 94 93 90 85 82 78 74 70 66 64 61 59 57 56 55 54 54 53 52 51 50 49 47 45 43 40 37 34 31 29 27 27 25 25 24 23 23 22 22 21 22 22 22 22 22 22 23 23 23 23 23 22 21 21 20 19 19 19 19 19 18 18 18 18 19 19 19 19 19 19 18 18 18 18 18 19 19 18 19 19 20 21 23 24 26
103 102 102 102 101 98 96 94 92 90 88 86 82 79 75 70 66 61 58 55 52 50 49 48 46 46 45 44 43 42 42 41 40 39 37 36 34 33 31 30 28 27 26 25 24 23 23 22 22 21 20 20 19 20 20 20 20 20 20 20 20 19 19 19 19 19 19 18 18 18 18 17 17 17 16 16 16 16 16 16 16 16 16 15 15 15 16 16 16 16 16 16 16 17 18 19 20
103 103 102 99 97 93 90 86 83 79 76 72 67 64 60 56 52 48 46 43 41 40 40 39 39 39 39 38 37 36 35 34 34 33 32 31 30 30 29 28 28 27 26 25 25 24 23 23 22 22 20 20 19 19 20 19 19 19 18 19 18 18 17 17 17 17 16 16 17 16 16 16 16 16 16 16 15 15 15 14 15 14 14 14 14 14 15 15 16 17 17 17 16 16 16 17 17
102 100 95 90 86 81 77 72 68 64 60 56 52 49 45 42 40 38 37 36 37 38 40 40 41 41 40 39 37 36 35 34 33 32 31 30 29 29 28 28 27 26 26 25 24 24 23 22 22 21 21 20 19 19 19 18 18 18 18 18 17 17 17 16 16 16 16 15 16 16 15 15 15 15 15 15 15 14 14 14 14 14 14 13 13 14 14 16 17 19 20 21 20 19 18 17 17
96 88 81 76 72 66 61 58 55 51 48 44 41 38 36 35 34 35 38 42 45 47 48 47 45 43 41 38 36 35 33 32 31 30 30 29 28 27 26 26 25 24 23 23 22 22 21 20 20 19 19 18 18 17 17 17 17 16 16 17 17 16 15 16 16 15 15 15 15 15 15 15 15 14 14 14 14 14 14 14 14 13 13 13 13 13 13 14 16 18 19 20 22 21 20 19 19
81 74 69 66 61 56 52 49 46 43 41 39 37 37 39 41 43 47 51 53 54 53 49 45 41 38 36 35 34 33 32 31 30 29 28 27 27 26 25 24 24 23 23 22 22 21 20 20 20 20 19 18 18 17 17 17 17 17 17 17 18 17 16 15 16 16 16 15 15 15 15 16 15 14 13 14 14 14 14 13 13 13 13 13 13 13 13 13 14 14 15 17 20 23 24 24 24
70 66 63 59 53 48 45 42 42 42 43 44 48 53 56 60 62 63 63 61 57 50 43 38 36 35 35 34 33 32 31 31 30 30 29 29 29 28 28 27 27 27 26 26 25 24 24 23 23 23 23 21 20 19 19 19 19 19 19 19 20 20 19 18 18 18 18 18 16 16 16 16 16 15 14 14 14 13 13 13 13 13 13 13 13 13 14 14 15 15 16 16 16 17 19 22 24
65 61 56 50 44 40 39 40 44 51 59 66 71 76 77 76 74 70 65 59 51 43 38 36 35 35 35 35 35 34 34 34 34 35 34 34 33 32 31 30 29 29 28 27 27 26 25 25 25 25 25 24 24 22 22 22 22 22 22 22 22 22 23 22 22 22 22 21 20 18 17 17 17 16 15 14 14 14 15 14 13 12 12 13 13 14 15 16 19 22 24 24 24 22 19 17 17
61 55 48 42 38 37 40 47 57 68 80 88 90 89 85 78 73 68 61 54 45 40 37 37 36 36 36 37 38 38 39 39 38 38 37 36 35 34 32 31 29 28 27 26 26 26 25 25 24 24 24 25 25 25 24 24 23 24 24 24 24 24 24 25 25 26 25 24 23 21 19 18 18 18 18 16 15 15 16 17 16 14 14 14 15 15 17 20 24 27 31 33 35 39 40 38 36
56 49 43 40 40 44 54 67 79 86 91 94 94 92 84 77 71 65 56 49 43 40 39 38 38 38 39 40 40 39 39 39 39 38 37 36 36 36 35 34 32 31 29 28 26 26 25 25 24 24 24 24 25 26 26 26 25 25 25 25 25 24 24 24 25 26 26 27 25 23 21 19 19 21 24 24 22 20 20 21 21 18 15 15 16 18 21 23 26 31 38 46 53 60 64 63 62
54 47 44 44 49 61 76 88 95 97 96 95 96 93 83 75 70 60 52 48 44 42 42 42 43 43 43 42 40 38 38 39 39 38 37 36 35 35 35 35 34 33 31 30 28 27 26 25 24 24 24 23 24 25 26 27 27 27 27 27 26 25 24 23 22 22 23 24 24 23 22 20 19 21 26 30 33 33 31 33 34 29 22 17 16 18 21 23 26 31 37 47 58 69 76 76 71
55 49 47 51 65 81 94 100 101 100 99 97 98 93 82 75 70 60 54 51 49 48 49 49 48 47 45 42 40 39 38 38 38 37 36 35 34 32 32 31 30 30 29 29 28 27 27 25 25 24 23 23 22 23 24 25 26 26 27 27 27 26 25 23 21 20 20 19 19 19 19 19 18 20 24 28 34 38 40 43 46 45 40 35 33 33 35 39 43 48 50 52 56 60 66 70 70
57 52 53 60 76 91 101 103 102 101 99 98 97 90 80 76 72 64 60 58 57 57 55 54 52 48 45 42 41 40 38 38 37 35 34 33 32 30 29 28 27 27 26 26 25 25 25 24 24 24 23 23 22 22 22 22 23 23 24 24 25 26 25 24 23 21 20 19 18 17 16 16 17 18 21 24 28 32 38 44 52 58 60 63 68 72 78 82 84 84 83 81 80 74 70 68 68
62 59 64 72 82 92 101 103 101 102 99 97 96 90 82 79 76 71 68 67 66 63 60 56 51 47 44 42 41 41 39 39 38 35 34 32 30 30 29 28 28 27 26 26 25 25 25 24 24 24 23 23 22 22 21 21 21 22 22 22 22 23 23 23 23 22 21 20 20 19 18 18 17 17 18 22 25 30 40 50 59 68 73 77 81 86 94 100 102 101 98 98 97 93 90 87 83
72 66 72 81 87 92 99 102 102 103 100 98 97 95 91 86 82 77 73 72 68 62 58 54 49 46 43 43 43 43 42 41 39 36 33 31 30 29 28 28 27 27 27 26 26 25 25 24 24 23 23 22 22 22 22 21 21 21 21 21 22 22 22 22 22 22 22 22 23 22 22 22 21 20 19 20 23 28 40 56 70 81 87 90 91 89 90 94 96 98 99 101 101 100 100 99 96
79 76 83 88 91 95 99 101 102 101 99 97 95 96 99 92 82 76 72 70 65 60 57 53 49 46 45 46 46 45 43 40 37 33 31 30 29 28 27 26 26 25 25 24 24 23 23 22 22 22 21 21 21 20 21 21 20 20 20 20 20 21 21 21 22 22 22 23 24 24 24 24 25 25 24 24 24 26 35 53 75 93 101 101 102 100 98 98 99 99 100 102 103 103 103 101 101
83 82 88 94 98 101 102 100 101 98 94 93 90 92 101 94 77 72 70 65 62 61 58 53 49 48 49 49 47 43 39 34 31 28 27 27 26 26 25 24 24 23 23 23 23 22 22 22 21 21 21 21 20 20 20 20 20 20 20 19 19 20 20 20 21 21 22 22 23 24 24 25 25 26 27 28 28 28 32 46 69 93 105 105 103 102 101 100 101 101 100 100 102 102 101 100 101
85 81 88 99 104 105 104 101 101 97 91 91 88 87 99 94 75 69 67 61 61 60 56 50 47 47 46 44 39 36 32 29 26 24 24 24 24 23 23 23 24 24 24 24 24 24 23 23 22 22 22 22 22 21 21 21 21 21 21 20 20 20 20 20 20 20 21 21 22 23 23 25 25 26 28 30 31 31 32 39 54 74 91 100 103 102 100 101 101 101 101 101 102 103 101 102 103
86 87 95 102 104 104 105 105 100 91 83 82 81 82 92 90 76 70 66 60 59 57 52 46 44 43 40 36 32 30 28 25 23 24 24 24 23 24 25 26 26 26 26 26 26 25 25 24 24 24 24 24 24 23 23 23 23 23 22 22 22 22 22 21 21 21 21 21 22 22 23 24 26 28 30 32 35 35 35 36 40 48 59 70 79 83 86 93 97 97 96 96 96 96 94 94 94
95 97 100 100 103 104 106 108 98 83 75 74 76 81 88 88 81 72 63 57 54 53 48 43 41 38 34 31 28 28 26 24 23 24 25 25 26 28 28 27 27 27 28 28 28 27 26 25 25 26 26 25 25 24 24 24 24 23 23 23 23 24 24 24 24 23 23 23 23 23 23 24 25 28 32 37 43 47 48 47 45 44 45 50 56 64 73 83 93 96 95 93 92 92 91 89 89
103 102 100 101 105 106 107 104 92 81 76 74 77 80 80 82 82 73 58 50 50 50 46 42 40 37 34 32 29 29 28 26 25 25 27 28 30 31 30 30 30 30 30 31 31 29 29 28 28 28 28 27 27 26 26 25 25 24 23 23 23 23 24 25 26 26 26 25 25 25 25 25 25 26 29 34 44 55 64 68 70 68 65 64 67 73 79 84 90 94 96 96 94 93 91 92 95
104 103 102 105 106 105 107 100 89 83 78 77 79 75 70 72 76 70 57 49 51 52 50 48 46 42 41 38 35 34 33 33 32 31 32 33 34 35 35 35 34 33 34 34 33 32 31 32 31 31 31 30 30 30 30 29 28 27 26 24 23 23 23 24 25 26 27 27 27 27 27 27 28 28 28 29 33 42 54 65 76 83 86 87 88 89 89 90 91 91 91 91 91 90 88 88 90
102 101 101 104 104 105 108 103 96 89 80 80 81 74 71 74 73 68 60 56 58 59 58 58 56 53 51 48 46 45 42 41 42 42 41 41 41 41 40 39 38 37 37 36 35 35 34 34 34 34 34 34 33 34 33 33 33 31 30 29 27 25 24 24 24 25 25 26 27 27 27 28 28 29 29 30 30 32 37 44 54 66 76 84 90 92 93 94 95 95 93 90 89 88 85 81 77
101 101 100 101 101 102 104 104 102 96 88 85 83 75 74 80 79 74 68 64 67 69 69 68 66 65 62 59 58 56 53 51 50 49 48 46 45 44 43 43 42 41 39 38 37 37 37 36 37 37 36 36 36 36 35 36 36 36 35 32 30 29 27 26 25 25 26 26 27 27 27 27 27 28 29 29 30 31 31 33 36 41 49 57 66 74 81 86 89 92 93 93 91 90 89 86 82
100 101 100 99 100 100 100 100 100 98 91 85 82 75 75 84 86 82 77 75 80 82 80 80 78 76 74 70 68 66 63 58 54 53 51 49 47 46 47 47 46 45 42 41 40 39 40 40 40 39 38 37 37 38 38 39 39 39 38 35 33 30 29 28 27 27 28 28 28 28 28 28 27 27 28 29 29 30 31 31 32 34 35 39 43 50 56 64 71 77 81 84 85 86 87 87 86
100 100 99 99 101 100 99 99 98 96 90 82 78 70 70 85 89 83 84 88 92 91 89 90 87 82 80 77 74 70 65 61 58 57 55 53 50 49 50 49 47 47 45 44 43 43 44 44 42 40 38 37 38 40 40 41 41 41 39 36 34 31 30 30 29 30 30 30 31 30 30 30 30 30 29 29 28 29 30 31 32 33 34 36 38 41 45 49 54 60 65 69 72 77 80 83 84
99 99 100 100 100 99 97 94 92 91 88 83 79 66 63 80 85 79 84 93 101 104 101 98 91 84 82 78 74 68 64 62 60 60 59 56 53 51 50 50 49 48 48 48 47 47 46 45 43 40 40 40 41 42 42 42 43 41 39 36 33 31 30 30 30 31 32 32 33 33 33 33 33 33 32 31 30 30 30 30 31 32 33 35 36 38 40 43 46 49 52 56 60 65 70 76 82
99 100 100 100 99 100 100 97 92 88 87 86 84 75 65 70 78 78 80 85 99 112 112 108 103 96 91 85 80 74 70 69 67 65 61 57 55 54 54 54 53 52 52 52 50 49 47 45 44 43 43 43 43 43 42 43 42 40 37 35 32 31 30 31 31 31 32 32 33 34 35 35 35 35 35 35 34 33 32 32 31 32 33 33 34 35 36 37 39 41 43 46 49 52 55 60 64
99 100 100 100 99 99 99 98 95 90 88 85 86 90 77 63 70 77 74 79 98 112 112 110 105 97 92 89 85 81 78 76 73 68 63 59 58 59 60 59 57 56 55 53 52 50 49 48 47 46 46 46 45 43 43 42 40 38 35 33 31 31 31 32 32 32 33 33 33 33 33 33 34 34 35 36 36 35 34 34 33 32 33 33 33 34 34 35 35 36 37 38 40 41 44 46 48
100 100 101 101 101 99 95 92 91 87 83 79 86 99 86 61 62 68 65 79 103 111 107 105 100 92 90 90 87 85 82 78 73 68 65 63 64 64 63 61 58 56 55 53 53 53 53 51 49 49 49 47 44 43 43 42 39 36 34 32 31 31 32 32 32 32 32 32 31 31 31 31 31 31 32 33 33 34 34 34 34 33 33 33 33 34 34 34 35 35 35 35 36 36 37 38 39
100 100 100 102 102 100 97 93 91 86 78 76 86 96 84 61 60 65 65 78 93 95 93 92 90 90 92 91 88 84 81 77 74 72 70 70 70 68 63 59 57 56 55 55 55 55 55 53 52 52 49 45 43 44 44 42 39 36 34 33 33 33 34 33 33 32 31 31 30 30 30 30 30 30 31 31 31 32 32 32 32 33 33 33 33 33 34 34 35 35 36 36 36 36 36 37 36
100 101 100 102 101 100 100 97 97 92 83 84 89 89 80 64 63 70 73 77 83 86 86 83 84 89 91 89 85 82 81 81 80 80 79 77 74 69 63 60 59 57 57 58 58 58 57 57 57 54 48 46 48 48 46 43 41 39 37 36 37 37 37 36 35 34 33 33 32 32 32 31 31 30 30 30 30 30 31 31 31 31 31 32 32 32 33 34 35 35 36 36 37 38 38 38 39
100 101 100 101 100 100 100 97 97 93 87 90 90 87 80 69 68 75 75 72 73 78 84 89 90 89 88 86 85 87 89 88 88 88 86 81 74 68 64 63 61 61 61 62 64 64 65 65 61 54 50 52 53 51 48 47 45 42 40 40 41 41 39 37 36 35 35 35 34 34 33 32 32 31 30 30 30 29 29 30 30 30 31 31 31 32 32 32 33 34 34 35 36 38 39 40 41
100 100 99 98 97 96 94 93 94 90 84 84 85 85 79 72 77 82 77 69 62 65 80 92 94 92 90 87 87 92 95 95 96 95 89 79 71 67 67 66 65 65 67 70 73 73 73 69 61 55 56 57 55 52 52 52 48 45 45 46 45 43 41 40 39 39 38 37 36 34 33 32 31 30 30 30 30 29 29 29 29 29 30 31 31 32 32 33 33 33 34 35 35 36 37 39 40
100 99 98 95 93 90 87 86 86 82 78 78 78 77 73 73 80 82 75 67 62 70 87 97 98 95 90 85 86 91 94 97 96 91 82 73 69 70 70 70 69 70 74 77 80 80 76 68 60 58 59 56 54 54 56 54 49 48 49 48 46 44 42 41 41 41 40 38 37 35 34 32 31 30 29 29 28 28 28 28 28 28 28 29 30 31 33 34 34 35 36 36 37 37 38 39 40
101 101 100 97 95 95 90 83 80 76 73 72 73 71 67 71 77 77 73 68 71 86 100 107 108 103 95 92 95 98 96 94 88 80 74 71 73 75 73 71 71 74 80 83 85 82 73 64 59 58 56 53 54 57 56 51 48 49 50 48 47 45 43 42 42 41 40 38 37 35 34 33 31 30 29 28 27 26 26 26 26 27 28 28 29 30 31 33 34 35 36 37 38 38 39 40 40
101 100 101 100 101 102 97 87 81 76 69 64 66 66 64 65 67 71 73 72 82 98 107 111 111 109 106 106 108 108 98 87 79 73 74 76 77 77 74 74 76 81 89 91 86 78 67 60 58 55 51 52 56 58 54 50 50 52 52 51 49 47 45 44 44 43 40 39 38 36 35 33 31 30 29 28 27 26 25 24 24 25 26 27 28 29 30 32 33 34 35 36 37 37 38 39 40
99 97 101 103 102 101 98 91 81 75 67 60 59 61 65 69 66 70 80 83 92 105 109 109 107 106 107 108 110 105 92 81 77 74 77 79 78 77 77 81 88 93 96 92 81 69 62 58 55 53 54 58 60 57 53 53 56 57 56 55 52 50 49 48 46 44 41 40 39 38 36 34 33 31 29 28 27 26 25 24 24 24 24 25 26 28 29 31 32 33 34 35 36 37 38 39 39
101 102 104 104 102 99 98 93 85 79 73 63 62 65 72 80 81 86 95 97 102 110 111 107 104 104 108 109 106 100 89 82 79 77 79 79 76 79 86 93 99 102 96 85 73 64 61 58 55 56 59 62 61 60 60 62 63 62 60 59 57 55 53 50 47 44 42 41 40 38 37 36 34 33 30 28 27 26 26 26 26 26 26 26 26 27 28 29 30 32 33 34 35 37 37 38 39
105 105 103 102 103 101 100 100 96 93 85 71 69 72 74 83 92 97 100 101 107 115 113 107 104 104 108 109 104 100 93 86 85 84 79 79 79 83 94 102 104 100 90 77 69 66 66 62 60 61 64 66 68 70 70 69 67 66 65 64 63 62 58 53 50 46 43 42 41 39 37 36 34 33 32 30 29 29 28 28 28 29 29 29 29 29 29 29 30 30 32 33 34 35 36 37 38
105 104 103 102 103 102 102 102 101 100 96 84 77 75 73 82 92 95 99 102 107 113 109 104 105 103 103 108 107 102 98 93 94 92 81 79 87 94 102 107 100 91 83 75 72 72 72 69 67 67 69 75 81 80 77 74 71 70 70 70 69 67 62 57 53 48 45 43 42 40 38 36 35 34 33 32 32 31 30 30 30 31 32 33 33 33 33 33 33 33 33 34 34 34 35 36 37
104 103 103 102 101 101 101 100 98 101 102 95 87 73 68 84 91 92 103 107 106 110 108 102 104 103 103 108 104 99 103 102 95 91 88 87 96 107 110 105 94 85 82 79 77 76 75 74 74 74 79 88 90 85 79 77 76 75 74 75 75 72 67 62 57 51 47 45 43 41 39 38 38 37 36 35 34 34 33 32 32 33 35 36 35 35 34 34 35 36 36 37 37 38 38 38 38
107 106 103 101 101 101 100 97 95 100 101 99 95 75 65 85 94 93 109 114 105 108 109 103 103 104 103 106 104 100 108 111 99 92 95 97 104 112 108 96 88 87 86 83 79 77 78 81 83 86 93 97 93 87 83 81 80 79 79 79 79 76 73 68 61 55 51 48 45 43 41 41 41 41 41 40 39 38 37 35 34 35 37 38 38 36 35 35 34 35 36 38 39 41 42 42 41
Wind_Speed
64 64 64 65 66 66 67 67 67 67 67 67 66 65 64 63 62 61 60 59 59 59 59 59 59 60 61 62 62 62 63 63 64 64 64 65 65 65 66 66 67 68 70 71 71 71 72 74 75 75 76 76 77 77 78 79 81 84 85 82 80 80 82 83 83 84 85 85 84 86 86 86 85 85 86 87 87 88 89 89 90 89 89 89 89 89 87 87 87 87 87 87 88 88 89 89 90
65 65 65 65 66 66 67 67 67 67 67 66 65 64 64 63 62 62 61 61 60 60 60 61 61 62 63 63 63 63 64 64 65 65 65 66 66 66 67 67 68 69 70 71 72 73 73 74 74 75 76 77 77 77 77 78 80 83 85 85 82 81 82 83 84 86 86 85 84 85 86 86 86 86 87 88 88 88 88 89 91 91 91 91 91 92 91 90 89 89 89 89 89 89 90 91 91
65 64 65 65 65 66 66 66 66 66 65 65 64 64 64 63 62 62 62 61 61 61 61 62 62 63 64 65 65 64 64 65 66 66 66 67 67 67 67 68 68 69 71 72 73 73 74 75 74 75 76 77 77 78 78 78 79 82 85 86 84 83 83 85 87 88 88 88 88 88 87 87 87 87 89 88 87 87 88 89 90 92 93 93 92 93 94 94 93 92 91 91 91 91 92 93 93
64 63 64 64 65 66 65 65 65 65 64 64 63 64 63 62 62 62 62 62 62 62 62 63 63 64 64 65 66 66 66 65 66 67 67 68 68 69 69 69 69 70 71 72 74 74 75 76 75 76 77 77 78 79 79 79 79 81 84 84 83 83 84 87 89 90 90 91 91 91 90 90 90 90 91 91 89 88 89 90 91 92 93 94 94 93 94 95 95 95 94 94 94 94 94 94 95
62 63 64 64 65 65 65 65 65 65 64 63 63 63 62 62 62 62 62 62 63 63 64 64 65 65 65 66 66 67 67 67 67 68 68 69 70 70 71 71 71 71 71 72 74 75 76 76 76 76 77 78 78 79 79 79 80 80 82 82 81 81 83 86 88 88 90 91 92 92 92 91 92 93 95 96 95 93 92 92 92 93 93 95 96 95 95 95 95 95 95 96 96 96 96 97 97
62 63 64 65 65 66 66 66 66 65 64 63 62 62 62 61 61 61 62 62 63 64 64 64 65 65 66 67 67 67 68 69 69 70 70 71 72 72 72 73 73 73 73 73 74 75 75 76 76 75 76 78 78 79 78 79 79 80 82 83 83 83 85 89 89 90 92 93 93 94 94 93 93 95 97 100 100 98 97 96 96 97 96 95 96 97 97 98 98 97 97 97 97 96 97 97 98
63 64 65 65 65 66 65 66 65 65 64 63 63 62 62 62 62 62 62 63 63 64 64 64 64 64 65 65 67 68 69 70 71 71 72 73 73 74 74 75 75 76 76 76 76 76 76 76 75 76 76 77 78 78 78 79 79 80 81 82 84 84 85 88 90 92 94 94 94 94 95 94 95 96 98 101 102 101 101 101 101 101 100 99 99 99 100 102 102 102 101 101 100 98 97 97 97
63 64 64 64 65 65 65 65 64 64 64 63 64 63 63 63 63 64 64 64 64 64 64 64 64 64 65 65 65 67 68 70 71 73 73 74 75 75 76 77 77 78 79 79 79 79 79 78 78 78 78 77 78 78 79 80 81 82 82 82 85 86 85 87 89 91 93 93 93 93 94 95 96 97 99 101 102 103 103 104 105 105 105 104 103 103 104 105 106 106 106 106 105 103 101 100 99
62 62 63 63 64 64 63 63 63 63 63 64 64 65 65 65 66 66 66 66 66 66 66 67 67 67 67 67 67 68 68 69 70 72 73 74 75 76 76 77 78 79 80 81 82 82 82 82 81 81 81 80 79 80 81 81 83 85 84 85 87 88 88 89 90 91 92 93 93 93 94 94 95 96 99 101 102 103 105 106 107 107 107 107 108 109 109 110 110 110 110 110 109 108 106 105 103
61 61 62 62 63 62 62 62 63 63 64 64 65 65 66 67 67 67 67 68 68 68 68 68 68 69 69 69 70 70 70 71 71 72 73 74 74 75 76 76 77 78 79 80 81 83 83 83 84 84 84 84 83 83 83 84 85 86 87 88 89 90 91 92 92 93 94 94 94 94 95 95 96 96 99 101 102 103 105 107 108 108 109 109 110 111 112 113 113 113 113 113 113 113 112 110 109
62 62 61 62 62 62 62 63 63 64 64 65 65 66 66 67 67 68 68 68 68 68 69 69 69 70 70 70 71 71 71 72 73 74 75 75 76 77 77 78 78 79 79 80 80 81 83 83 84 85 85 85 86 85 86 86 87 88 89 90 91 92 93 94 95 96 96 96 96 96 96 97 97 98 100 101 103 104 106 108 109 109 110 110 110 111 112 113 114 114 114 115 115 116 116 115 113
62 63 62 62 62 63 63 63 64 64 64 65 66 66 67 67 68 68 69 69 69 70 70 70 71 71 71 72 72 72 72 73 73 74 75 76 77 78 79 80 81 81 81 82 82 82 83 84 84 84 85 85 86 86 87 88 88 89 90 91 93 94 95 96 97 98 98 98 99 99 98 99 100 101 102 103 104 106 108 108 108 108 109 109 110 111 112 114 114 115 115 115 116 117 118 119 118
62 63 63 64 64 64 64 65 65 65 66 66 67 67 67 68 68 69 69 70 70 71 72 72 73 74 74 75 75 75 76 76 76 76 76 77 77 78 79 81 82 83 83 84 85 85 86 86 86 86 86 86 87 87 87 89 90 90 90 91 93 95 96 96 98 100 100 100 101 102 101 102 103 104 105 106 107 108 108 108 108 108 109 109 110 110 112 114 115 116 116 116 116 117 119 121 121
63 64 64 65 65 65 65 65 66 66 67 68 68 68 68 68 69 69 70 70 71 72 73 74 75 75 76 77 77 78 78 79 79 79 79 78 79 79 79 80 81 82 83 84 85 86 87 88 88 88 88 88 89 89 89 91 92 92 92 93 94 96 97 98 98 100 101 102 103 104 104 105 107 109 110 110 109 108 108 109 109 110 111 111 112 111 112 113 114 115 116 117 117 118 119 121 122
60 61 62 63 63 63 63 63 64 64 65 66 66 67 67 68 69 69 70 71 72 73 73 75 75 76 77 78 78 79 79 80 80 80 80 80 80 79 79 80 80 81 82 83 84 85 86 88 88 88 89 89 89 90 91 92 93 94 95 96 96 97 99 99 100 101 102 103 104 105 106 107 109 111 112 112 111 109 109 110 111 112 113 113 113 114 113 113 114 114 114 115 116 117 118 120 122
57 58 59 60 61 61 61 62 62 63 64 65 65 66 67 68 69 70 71 71 72 73 74 74 75 76 76 77 78 78 79 79 79 79 79 80 80 80 80 80 80 80 80 81 82 83 84 85 86 87 87 87 87 88 89 91 92 93 94 95 96 97 98 99 100 101 102 102 103 105 106 108 110 111 112 112 111 111 111 111 112 112 113 114 114 115 114 114 113 114 114 114 115 116 117 118 119
57 58 59 60 60 61 61 62 63 63 64 65 66 67 67 68 69 70 71 71 72 72 73 74 74 75 75 76 77 78 78 78 79 79 79 79 79 79 79 79 79 79 79 79 79 80 80 81 83 84 85 85 85 85 86 87 88 90 91 92 93 94 95 97 98 99 100 100 101 103 104 106 109 110 111 111 111 111 112 113 113 113 113 114 114 114 115 114 114 114 115 115 115 115 116 117 118
56 57 58 59 59 60 61 62 62 63 64 64 65 66 66 67 68 69 70 71 72 72 73 74 74 74 75 75 76 76 76 76 76 75 75 75 75 75 74 74 74 75 75 75 75 75 76 77 78 79 80 81 81 81 81 82 84 85 86 88 90 91 91 93 95 97 98 98 98 99 101 103 105 107 108 109 109 110 111 112 113 113 114 114 114 114 114 114 114 114 115 115 115 115 116 116 117
54 55 56 57 58 58 59 61 62 63 63 64 65 66 67 68 69 70 70 71 71 71 71 71 70 70 71 71 71 71 71 71 71 71 70 70 70 70 70 70 70 70 71 71 71 71 72 73 73 74 75 76 77 77 77 78 79 80 81 83 86 86 86 88 90 92 94 94 94 95 97 98 100 102 103 104 105 106 107 109 110 111 112 113 114 114 114 113 112 112 113 113 115 115 116 116 117
53 53 55 56 57 58 59 61 63 64 65 66 67 67 68 68 68 68 68 67 67 66 65 65 65 66 66 67 67 68 68 68 69 68 68 67 67 67 67 67 68 68 68 68 69 69 69 70 71 71 72 73 73 74 75 75 76 76 77 79 82 84 83 83 85 87 89 90 91 91 93 95 98 99 99 100 100 101 103 104 106 107 108 109 111 112 112 111 111 111 111 111 112 114 115 116 117
52 53 55 57 58 59 61 63 65 65 66 66 67 67 66 66 65 64 64 63 62 62 62 62 63 64 65 66 66 67 67 67 66 66 65 65 65 64 65 65 65 66 66 66 67 67 67 68 69 70 71 71 72 72 73 74 74 75 75 75 78 80 81 82 82 83 85 87 87 88 89 91 95 98 98 98 99 100 100 102 103 104 105 106 107 108 109 110 110 111 111 111 111 111 112 113 114
53 55 56 59 60 60 62 63 65 65 65 65 65 64 63 62 62 62 62 62 62 62 62 62 63 64 64 64 64 64 64 64 64 63 63 63 63 62 63 63 63 64 64 64 65 65 65 66 66 67 69 70 71 71 71 73 73 73 74 74 75 76 78 79 80 81 82 84 85 86 86 89 92 96 97 97 98 99 100 102 102 102 103 103 105 105 106 107 108 109 110 111 112 112 112 112 113
55 56 57 59 59 60 61 62 63 63 63 63 63 62 62 62 62 63 63 63 63 63 62 62 62 62 62 62 62 62 62 62 62 62 61 61 61 60 60 60 61 61 61 62 63 64 64 65 65 66 66 68 69 70 70 71 71 72 72 73 73 73 74 76 77 79 80 82 84 85 86 88 91 94 95 96 96 97 99 102 103 102 102 102 103 104 105 105 106 106 107 108 110 112 113 114 115
55 56 57 58 58 59 59 60 61 61 61 62 62 62 62 63 63 64 63 63 63 62 62 61 61 60 60 60 60 60 60 60 60 60 59 59 59 58 58 59 59 59 59 60 61 62 63 64 65 65 65 66 67 68 69 70 70 71 71 71 72 72 73 73 75 77 79 81 84 86 87 88 91 93 95 96 96 97 99 101 103 103 102 102 103 104 105 106 107 107 107 108 109 110 112 113 113
55 56 56 57 57 57 58 58 59 60 61 61 62 63 63 63 63 64 63 63 62 62 62 61 60 59 59 59 59 59 58 59 59 59 59 58 58 58 59 59 59 60 60 61 61 62 63 63 64 65 66 66 66 67 69 70 71 71 71 72 72 72 73 74 75 76 78 81 83 85 87 88 90 93 94 96 97 98 99 101 104 105 104 104 104 105 106 107 108 108 109 109 109 109 110 111 111
56 55 55 56 56 56 56 58 59 60 61 61 62 62 63 63 63 63 63 62 62 62 62 61 60 60 59 59 59 59 59 59 60 60 60 60 60 61 61 61 62 63 63 64 64 65 66 66 66 67 67 67 68 68 69 70 71 72 73 73 74 75 76 76 77 78 79 81 83 85 87 89 90 92 93 96 98 99 100 101 103 106 107 107 106 107 107 109 109 110 110 111 110 110 110 110 111
56 56 56 55 55 55 56 58 59 60 61 61 62 62 63 62 63 63 63 62 62 62 62 62 62 61 61 60 60 60 60 61 62 62 62 62 63 63 64 65 65 66 66 67 68 68 69 69 70 70 70 71 71 71 71 72 73 74 74 75 76 77 78 79 80 81 82 84 85 87 88 89 89 90 92 94 97 100 101 103 104 106 107 108 108 108 108 108 109 110 111 112 112 112 112 111 111
56 56 56 56 56 56 57 58 59 60 61 61 62 62 63 62 63 63 63 63 63 63 63 63 63 63 62 62 61 62 62 62 63 63 64 64 65 66 66 67 67 68 68 69 69 70 71 71 72 73 74 74 75 75 75 75 76 76 77 77 78 78 79 80 81 82 83 84 86 87 87 88 88 88 89 92 95 98 101 103 104 106 108 108 108 106 105 105 106 108 110 111 113 114 114 114 113
57 57 57 57 57 57 57 58 59 60 60 61 61 62 63 63 63 64 63 64 65 65 65 65 65 64 63 63 62 62 62 63 64 65 65 66 66 66 66 67 67 67 67 67 68 68 69 70 71 72 73 75 76 77 78 78 79 79 80 81 81 82 82 82 83 83 84 84 85 86 87 87 88 88 88 89 91 93 97 101 104 107 109 110 111 109 107 106 106 108 110 111 112 114 115 115 116
58 58 58 58 58 58 58 58 60 60 60 60 60 61 64 64 64 64 64 65 66 66 66 65 65 65 64 63 63 63 63 64 65 65 65 65 65 65 64 64 64 64 64 64 64 65 65 66 68 69 70 71 73 74 76 78 79 80 82 83 84 85 85 86 86 86 86 87 87 87 87 87 88 88 87 87 88 89 92 97 102 106 110 113 114 114 113 112 112 112 113 113 114 115 116 117 118
58 58 59 59 59 59 59 59 61 61 60 60 60 60 64 66 65 64 64 65 65 66 66 66 65 65 64 64 64 64 64 64 64 63 63 62 62 62 61 61 60 60 60 60 61 61 62 63 64 65 67 68 70 71 72 74 75 77 79 81 83 84 86 87 88 89 89 90 90 91 90 90 89 88 88 87 87 88 89 92 97 103 108 112 114 115 115 115 115 116 117 117 118 118 119 119 119
58 58 58 59 59 60 60 61 62 62 60 60 60 59 63 67 64 62 64 64 65 66 67 66 66 66 65 64 63 62 62 61 61 60 59 58 58 58 57 57 57 57 57 58 59 59 60 61 62 63 64 65 66 68 69 71 72 74 75 77 79 81 83 84 86 88 89 90 92 92 93 93 92 91 90 89 89 88 88 90 93 98 104 108 112 114 115 116 117 118 119 120 120 121 122 122 122
58 57 57 59 60 60 61 62 62 61 60 59 59 57 61 67 64 62 64 64 65 67 69 67 65 64 62 61 60 59 59 58 58 57 55 55 55 55 54 54 55 56 57 58 59 59 60 61 61 61 62 63 64 65 66 68 70 71 73 74 76 78 79 81 83 84 86 88 90 91 92 93 94 93 93 92 91 90 89 90 91 95 99 104 108 112 114 116 118 118 119 119 120 120 121 121 122
57 56 57 59 59 60 62 63 62 61 59 59 59 57 60 66 65 64 65 64 66 69 69 66 63 61 59 58 58 58 57 56 55 54 54 54 54 54 55 56 56 57 58 59 60 61 61 62 62 62 62 62 63 63 64 65 67 69 70 72 73 75 77 79 80 82 84 85 87 88 90 91 93 93 94 94 93 93 93 92 93 93 95 98 101 104 107 110 112 113 114 114 115 115 116 116 117
56 56 58 58 60 61 63 65 64 61 60 59 59 57 59 63 66 67 65 64 66 68 68 64 61 59 58 58 58 58 57 56 54 54 55 55 56 57 58 58 59 59 60 61 62 63 64 64 64 64 64 64 64 65 65 65 66 67 68 69 71 73 75 77 79 81 82 84 85 87 88 89 91 92 93 94 94 94 94 95 95 95 96 97 98 100 102 105 107 110 112 114 115 116 117 117 118
57 58 58 59 60 62 65 67 65 62 60 59 59 58 57 61 67 69 65 63 65 67 66 63 62 61 60 59 60 59 58 57 56 56 57 58 59 60 60 61 61 62 63 64 65 66 66 66 67 67 68 68 68 68 68 68 68 68 69 69 70 71 72 75 77 79 81 82 84 85 87 89 90 91 93 94 94 95 95 95 95 96 97 98 100 102 104 107 109 111 113 115 117 118 119 120 121
58 59 59 60 62 63 67 67 65 64 60 58 60 58 55 58 64 68 66 64 65 66 65 64 64 63 62 62 61 60 59 59 59 59 59 60 61 62 63 63 64 65 66 66 67 68 68 69 70 70 71 71 71 72 71 71 71 71 71 71 72 72 73 74 76 77 79 81 83 84 86 88 89 91 93 94 95 96 97 98 98 98 98 99 101 103 105 107 109 112 113 115 116 117 118 119 120
61 61 62 62 63 65 68 68 66 65 61 58 61 58 54 57 61 65 67 65 66 67 66 65 66 66 65 64 63 62 62 61 61 61 61 62 63 64 65 66 66 67 68 69 69 70 70 71 72 73 73 74 74 74 74 74 74 74 74 74 74 75 76 76 77 78 79 80 82 84 85 87 89 91 92 94 96 97 99 100 101 101 101 102 103 104 105 106 108 110 111 113 114 115 116 116 116
63 64 64 64 66 67 68 69 68 67 63 60 61 58 54 57 60 64 66 65 67 69 67 67 67 68 68 66 65 65 64 63 63 63 64 64 65 66 67 68 68 69 70 70 71 71 73 74 75 76 76 77 77 77 77 77 76 76 76 76 77 78 79 80 80 81 81 81 82 84 85 87 89 90 92 94 96 98 99 101 102 103 104 105 106 107 107 108 109 110 111 112 112 113 114 115 115
66 66 66 66 69 70 68 69 69 68 66 63 62 59 55 58 61 63 65 66 68 70 69 69 70 70 70 69 68 68 67 66 66 66 66 66 67 67 68 69 70 71 71 72 72 73 75 76 77 78 79 79 79 79 79 79 78 78 78 79 80 81 82 82 83 83 83 84 84 85 86 88 89 90 92 94 96 98 99 100 102 103 105 106 108 109 110 111 112 112 113 114 114 115 115 116 117
67 67 67 67 70 71 68 69 69 69 68 66 65 60 55 58 62 62 64 66 69 71 71 72 73 71 71 71 71 70 69 70 69 69 69 69 69 69 70 71 72 72 72 73 74 75 76 78 79 80 81 81 81 81 81 81 80 80 80 81 82 83 83 84 84 84 84 85 85 86 87 88 90 91 93 94 96 97 98 100 101 103 104 105 107 109 110 111 113 114 115 116 116 117 118 118 119
66 66 67 69 70 71 70 70 70 69 69 68 68 64 55 56 61 61 63 66 69 72 73 74 75 73 73 73 73 72 72 72 72 72 72 71 71 72 72 73 73 73 73 74 75 77 78 80 81 82 83 83 83 83 83 82 82 82 82 83 84 84 84 84 84 84 84 85 86 87 88 89 90 92 93 95 97 98 99 100 102 103 104 105 106 108 109 111 112 114 115 116 117 118 119 119 120
64 65 68 70 69 70 70 70 70 69 68 67 68 67 60 56 58 61 63 64 67 73 76 76 76 75 75 75 74 74 74 74 74 74 74 74 74 74 74 74 74 74 75 76 77 79 81 82 83 84 84 84 84 84 84 83 83 83 84 85 86 86 85 85 85 85 85 86 86 87 88 90 91 92 94 95 97 98 100 101 103 104 105 107 108 109 110 111 112 113 114 115 116 117 118 119 120
64 66 69 71 70 71 70 70 70 69 68 66 66 70 68 59 55 61 63 63 67 73 76 77 78 77 77 76 75 75 76 76 76 76 76 76 76 75 75 75 75 75 76 78 80 81 83 84 85 86 86 86 86 85 85 84 84 84 85 86 86 86 86 86 86 86 87 87 88 89 90 91 92 94 95 97 98 99 101 102 103 104 106 107 108 110 111 113 114 114 115 116 116 117 118 119 120
67 69 71 73 73 73 73 72 72 72 70 66 65 72 74 63 56 61 63 63 69 74 76 78 78 78 78 77 77 76 77 77 78 78 78 77 76 76 76 76 76 77 79 81 82 84 85 86 87 87 87 87 87 87 86 85 86 86 87 88 88 87 87 87 87 88 88 88 89 90 91 93 94 95 97 99 100 101 103 104 105 105 106 107 108 109 111 112 114 115 116 117 118 118 119 120 120
72 73 74 76 77 76 76 75 75 76 72 67 68 74 77 68 58 60 64 66 71 74 76 78 78 79 78 78 78 78 78 79 79 79 79 77 77 77 77 78 78 80 82 83 85 86 88 88 89 89 89 89 88 87 86 87 88 88 89 89 89 89 90 90 90 90 90 90 91 91 92 93 94 95 97 99 101 103 104 105 107 108 109 109 110 111 111 112 113 114 115 117 118 119 120 121 122
76 77 77 78 79 78 79 78 78 79 75 71 73 76 78 71 61 61 66 69 72 74 76 78 78 79 79 79 79 79 80 80 81 80 79 78 78 78 79 80 81 83 85 86 88 89 90 90 90 90 91 90 89 88 88 89 89 90 91 91 91 91 92 92 92 92 91 91 91 92 92 93 94 95 96 98 99 101 103 105 107 109 110 111 112 113 114 115 115 116 116 117 118 119 120 121 122
77 77 78 79 80 80 80 80 81 81 77 75 77 77 77 72 63 63 68 71 73 74 75 77 78 79 79 79 80 80 81 81 81 80 79 80 80 80 81 82 84 86 87 89 90 90 91 91 92 92 91 90 89 88 89 90 91 92 93 92 92 92 93 92 92 91 91 91 91 92 93 94 95 96 97 98 99 100 102 104 106 107 109 111 112 114 115 116 117 118 119 119 120 121 121 122 123
78 79 79 80 81 81 81 81 82 82 79 78 79 79 77 71 65 66 69 72 73 73 75 77 79 79 79 80 81 81 82 82 81 80 81 81 82 83 84 85 86 88 89 90 91 91 91 92 93 92 91 89 89 89 90 91 93 94 93 93 93 93 93 92 91 90 90 90 91 92 93 94 95 96 97 98 99 100 102 103 104 106 107 109 111 112 114 116 117 118 120 121 122 122 123 124 124
81 81 82 82 83 84 84 83 84 83 81 80 80 80 77 72 69 70 71 72 73 73 76 79 79 80 81 81 82 82 82 82 82 82 83 84 84 85 85 87 88 89 90 91 91 92 92 93 93 92 90 89 89 89 91 93 94 94 94 94 94 93 92 91 90 89 89 90 90 91 92 93 94 95 96 97 98 100 101 102 104 105 106 108 109 111 112 114 116 117 118 120 121 122 123 124 125
84 84 85 84 85 87 87 86 85 84 82 81 80 80 78 74 73 73 73 72 73 75 78 80 80 82 82 83 83 84 83 83 83 84 84 85 85 86 87 88 89 90 91 91 91 92 93 93 93 91 90 89 89 91 92 94 94 94 94 94 94 93 92 90 89 89 90 90 90 90 90 91 92 93 94 96 97 98 100 101 102 104 105 107 108 110 111 113 114 116 117 119 120 122 123 124 124
86 86 86 86 86 89 89 88 86 87 86 82 81 81 79 77 76 74 74 73 74 77 79 81 82 83 84 85 86 86 85 85 85 85 86 87 87 88 89 90 91 91 91 91 92 93 94 94 93 92 91 90 91 93 95 96 95 94 95 95 95 94 92 91 90 90 91 90 90 90 90 91 91 91 92 94 96 97 99 100 101 102 104 106 107 109 111 112 113 115 116 118 120 121 122 123 124
86 85 86 86 87 89 90 90 89 90 90 85 81 80 77 76 75 73 74 75 75 78 81 82 84 84 86 88 88 88 87 87 86 87 88 89 89 90 91 92 92 92 92 92 93 94 94 94 93 92 91 91 93 95 96 96 95 95 95 95 95 93 92 91 91 91 91 90 90 90 90 91 91 90 91 91 93 94 96 98 99 101 102 104 105 107 109 111 112 114 115 117 118 120 121 122 123
85 85 86 87 88 89 91 93 93 92 92 86 80 77 74 72 71 71 73 75 75 79 82 83 85 87 88 90 90 90 89 89 89 90 91 91 91 92 93 93 92 92 93 94 95 95 95 94 92 92 92 93 95 97 97 96 95 95 96 95 95 93 92 91 92 92 91 90 90 90 90 90 89 89 89 89 90 90 91 93 94 96 98 100 102 104 106 108 110 111 113 114 116 118 119 120 121
86 86 88 88 89 90 92 95 95 93 93 88 80 77 72 67 69 71 72 73 76 80 83 85 87 89 90 92 92 92 91 91 92 93 93 93 93 93 93 93 93 94 95 96 95 95 94 94 93 93 93 95 96 97 96 96 96 96 96 95 94 92 91 92 92 92 91 90 89 89 89 89 87 86 86 85 86 86 87 88 89 90 92 94 96 98 101 103 105 107 109 111 112 114 116 117 118
87 87 87 87 88 90 91 94 94 94 95 91 84 79 71 66 69 72 72 75 78 82 85 86 89 90 92 93 94 93 93 94 94 94 94 94 94 94 94 94 94 95 96 96 95 94 94 94 94 94 95 96 97 97 96 96 96 96 96 95 93 92 92 92 93 93 91 90 90 89 89 88 86 85 83 82 82 82 82 83 84 85 86 88 90 92 94 96 98 100 102 104 106 108 110 112 114
85 84 83 83 84 87 89 91 91 91 93 91 88 81 69 66 71 73 73 77 81 84 86 87 89 91 93 94 94 94 94 95 95 95 95 94 94 94 95 96 96 96 96 96 95 94 94 95 95 96 96 96 97 97 97 97 97 96 96 94 93 91 92 93 94 93 92 91 90 89 88 88 86 84 83 81 80 80 80 80 80 80 81 83 84 86 89 91 93 95 97 98 100 102 104 106 107
82 81 80 80 83 86 88 89 87 89 91 89 89 84 69 64 72 74 74 80 83 84 85 87 89 91 93 94 94 94 95 95 96 95 95 94 94 95 96 97 96 96 96 96 95 94 94 95 96 97 97 97 97 98 97 97 97 96 95 94 92 91 92 94 95 94 93 92 91 90 89 88 86 84 82 81 80 79 78 78 78 78 78 79 80 81 83 86 88 90 92 94 96 97 99 101 102
Wind_Direction
253 253 253 253 253 254 254 254 254 254 254 254 254 255 255 256 256 257 258 258 260 261 261 262 262 262 261 259 258 258 258 259 259 259 260 260 261 261 261 261 261 261 261 261 261 260 258 257 257 258 258 258 258 258 259 259 260 260 259 258 260 262 262 261 262 261 261 260 260 260 260 260 261 261 262 263 263 263 263 263 263 263 263 263 263 263 262 263 264 264 264 265 266 266 266 266 266
253 253 253 252 253 253 253 254 254 254 254 254 254 255 255 255 255 256 257 258 259 260 260 261 261 262 262 261 260 259 259 259 259 260 260 261 261 262 262 262 262 263 263 263 263 262 261 259 258 259 259 260 260 260 260 260 261 261 260 259 259 261 264 264 263 262 262 262 262 262 262 262 262 262 262 263 264 264 265 265 265 264 264 264 264 264 263 262 263 264 265 265 266 266 267 267 267
252 252 252 252 253 253 253 254 254 254 254 254 255 255 255 255 256 256 257 258 258 259 260 260 261 261 261 261 261 260 260 259 259 259 259 260 261 262 263 263 264 264 264 264 264 264 263 261 260 261 261 261 262 262 261 262 262 262 261 260 261 261 263 263 263 263 262 263 262 262 262 263 263 264 264 264 264 265 266 267 267 266 265 265 265 265 264 263 263 263 264 265 265 266 267 267 267
251 251 252 252 252 253 253 254 254 254 254 254 255 255 255 256 256 256 257 258 258 259 260 260 261 261 261 261 261 261 261 260 259 258 258 259 260 261 262 263 264 264 265 265 264 264 264 264 263 264 264 264 263 263 263 263 264 265 263 262 263 263 263 263 263 264 263 263 263 262 262 264 264 265 265 265 264 265 266 267 267 267 267 266 265 265 265 265 265 264 264 264 265 265 266 267 267
251 251 252 252 252 252 253 253 254 254 254 255 255 256 256 257 257 257 257 258 259 260 260 261 261 261 261 261 261 262 262 261 260 259 259 259 259 260 262 263 264 264 264 265 265 265 265 264 264 265 266 265 265 265 265 265 265 266 266 265 265 265 264 264 264 264 264 264 264 263 263 264 264 265 266 265 264 264 265 267 267 267 266 267 266 265 264 265 265 266 265 265 265 265 265 266 266
251 251 252 252 252 252 253 253 254 254 254 255 255 256 257 257 257 258 258 259 260 260 261 262 262 262 262 261 261 262 262 262 262 261 261 260 260 261 262 263 264 264 264 265 265 265 265 265 265 265 266 266 266 266 266 266 266 266 266 266 267 267 266 266 265 264 264 264 264 265 264 265 265 265 266 266 265 265 265 266 266 266 265 265 266 266 266 265 264 265 265 265 265 265 266 266 266
251 251 252 252 252 253 253 254 254 254 254 254 255 256 257 257 258 259 259 260 261 261 262 262 263 263 263 263 262 262 262 263 263 263 263 263 262 262 263 263 264 264 264 265 264 264 265 265 265 265 265 265 265 265 266 265 265 265 265 266 267 267 267 267 267 267 266 266 266 266 266 266 266 267 267 267 266 266 265 265 265 265 265 265 265 266 266 266 265 265 265 264 264 264 265 266 266
251 251 252 252 253 253 253 254 254 254 255 255 255 256 257 257 258 259 259 260 261 262 262 263 263 264 264 264 264 263 263 263 263 263 264 264 264 264 264 264 264 265 265 265 265 264 264 264 265 265 265 265 265 265 265 266 265 264 264 265 265 265 266 267 268 268 268 268 268 268 268 268 268 268 268 268 267 267 266 266 265 265 265 265 265 266 266 266 266 265 265 264 264 263 263 264 265
250 252 252 253 253 253 253 254 254 255 255 256 256 257 258 258 258 259 260 260 261 262 262 263 264 264 265 264 264 264 264 264 264 264 264 264 265 265 265 265 265 265 266 266 266 265 265 264 264 265 265 265 265 265 265 266 266 265 264 264 264 264 265 266 266 267 268 268 268 269 269 268 268 268 268 268 268 268 268 268 267 266 266 266 266 266 265 265 266 266 265 265 265 265 264 264 264
251 252 253 253 253 254 254 255 255 256 257 257 258 258 259 260 260 260 261 262 262 263 263 264 265 266 266 266 265 265 265 265 265 265 265 265 265 266 266 266 266 266 266 267 267 268 267 266 265 265 266 266 266 265 266 266 266 266 266 265 265 265 264 265 266 266 266 267 267 268 268 268 267 267 267 268 268 268 268 268 268 267 266 266 266 267 267 267 267 267 267 267 267 267 266 265 265
251 252 253 253 254 255 255 256 257 258 258 259 259 260 260 261 262 262 263 263 264 264 265 265 266 267 267 267 267 267 267 267 266 266 266 265 266 266 266 266 266 266 266 266 267 268 268 267 267 266 266 267 267 266 266 266 267 268 267 267 266 266 265 265 265 265 265 266 266 267 267 267 267 266 266 266 266 267 267 267 268 268 268 268 268 268 269 269 269 269 269 269 269 269 268 268 267
250 252 253 254 254 255 256 257 258 258 259 260 260 261 261 262 263 263 264 264 265 265 266 266 267 267 268 268 268 269 269 269 269 268 268 267 267 267 266 267 267 267 266 266 266 267 267 267 267 267 267 267 267 267 267 267 267 268 268 268 268 267 266 265 265 265 265 265 266 266 266 266 266 266 265 265 265 265 266 267 269 270 270 270 270 270 270 270 270 269 270 270 271 271 271 270 269
251 252 253 254 255 256 257 257 258 259 259 260 261 261 262 263 263 264 265 265 266 266 267 267 268 269 269 270 270 270 271 271 270 270 270 269 268 268 268 268 268 268 267 267 267 267 267 268 267 267 267 267 268 267 267 268 267 267 267 267 268 268 268 267 266 266 265 265 265 266 266 266 266 265 265 264 264 265 266 268 269 269 270 270 270 270 271 271 271 271 271 271 271 272 272 272 272
252 253 254 255 256 257 257 258 259 259 260 261 261 262 263 263 264 265 265 266 267 267 268 269 269 270 270 271 271 271 272 272 272 272 271 271 270 270 269 269 269 269 268 268 268 268 268 268 267 267 267 267 267 267 267 267 268 268 268 267 267 268 268 268 267 267 266 266 266 266 266 267 267 266 265 265 265 266 267 268 268 269 269 270 270 270 270 271 271 272 272 272 272 272 273 273 273
251 253 254 255 256 257 258 259 260 260 261 262 263 263 264 265 266 267 267 268 269 269 270 270 271 271 271 272 272 272 272 272 272 272 272 272 272 272 271 271 270 269 269 269 269 268 268 268 268 267 267 267 267 268 267 267 267 267 268 268 268 268 268 268 267 267 267 266 267 267 267 268 268 267 267 267 267 267 268 268 268 268 269 269 270 270 270 271 271 272 272 272 273 273 273 273 273
253 254 256 257 258 260 261 262 263 263 264 265 266 267 268 268 269 270 270 270 271 271 272 272 272 272 272 273 272 273 273 273 273 273 273 273 273 273 272 272 272 271 270 270 269 269 269 269 269 268 268 267 267 268 268 267 267 267 268 268 268 268 268 268 268 268 268 268 268 268 268 268 268 268 268 268 268 268 268 268 267 268 268 269 269 270 270 270 270 271 271 271 271 271 271 272 272
256 258 259 260 262 263 265 266 266 267 268 268 269 269 270 271 271 272 272 272 272 272 272 272 273 273 273 273 273 273 273 273 273 273 273 273 273 273 273 273 272 272 271 271 270 270 270 270 269 269 269 268 267 267 268 267 267 268 268 268 268 267 268 268 268 268 268 268 268 268 268 268 268 268 268 269 269 268 268 267 267 267 267 268 268 269 269 269 269 269 270 270 269 270 270 270 270
259 260 262 263 264 266 267 268 268 269 269 270 270 271 271 271 272 272 272 272 272 273 273 273 273 274 274 274 274 274 274 274 274 274 274 274 274 274 273 273 273 273 273 272 272 271 271 270 270 270 269 269 268 268 268 267 267 267 267 267 267 267 266 267 267 267 267 267 267 267 267 267 268 268 268 268 268 268 268 268 267 267 267 267 267 267 268 268 268 268 269 269 269 268 268 269 269
261 262 263 265 266 267 268 268 269 270 270 270 271 271 271 271 272 272 273 273 273 274 274 275 275 276 276 276 276 276 276 276 276 276 276 276 276 276 275 275 274 274 273 273 272 272 271 271 270 270 270 269 269 268 268 268 267 267 267 267 266 266 266 266 266 266 266 267 267 267 267 267 267 267 268 268 268 268 268 268 268 268 267 267 267 267 267 267 267 267 267 267 268 267 267 267 268
262 263 264 266 266 268 268 269 269 270 270 271 271 271 271 272 272 273 274 274 275 275 276 276 277 277 277 277 277 278 278 278 278 278 278 277 277 277 276 276 275 274 273 273 272 272 271 271 270 270 269 269 268 268 268 267 267 267 267 267 268 267 266 266 266 265 265 265 266 267 267 268 267 267 267 267 268 268 268 268 268 268 268 268 268 267 267 267 267 267 267 267 267 267 267 267 267
262 264 265 266 267 268 269 269 270 270 271 271 272 272 273 273 274 274 275 275 276 276 276 276 276 277 277 277 278 278 278 278 278 278 278 278 278 277 277 276 275 275 274 273 273 272 271 271 271 270 270 269 268 268 268 268 267 267 267 267 268 269 268 267 267 267 267 266 266 267 268 269 270 269 268 268 269 268 268 268 268 269 269 269 269 269 269 268 267 267 267 266 266 265 266 266 267
263 264 265 267 267 268 269 270 271 271 272 273 273 274 274 275 275 275 275 276 276 276 276 276 276 277 277 278 278 278 279 279 279 279 279 279 279 278 277 277 276 276 275 275 274 273 272 271 271 271 271 270 269 268 268 268 268 268 268 267 268 269 270 270 270 270 270 270 269 268 269 270 270 271 271 270 271 271 270 270 269 269 269 269 270 270 270 270 269 269 268 267 267 266 265 265 265
264 265 266 267 268 269 269 270 271 272 273 273 274 274 274 275 275 275 275 275 276 276 277 277 277 277 278 279 279 279 280 280 280 280 280 280 280 280 279 278 278 277 277 276 276 275 274 272 271 271 271 271 271 270 269 268 268 268 268 268 269 269 270 271 272 272 272 273 272 272 271 271 271 271 271 271 271 271 271 271 271 270 270 270 270 270 270 270 270 270 269 269 269 269 268 268 267
264 265 267 268 269 269 270 271 271 272 272 272 273 273 273 274 274 275 275 276 277 277 277 278 278 278 279 280 280 280 280 280 281 280 280 281 281 280 280 280 279 278 278 277 277 276 276 275 274 272 271 271 271 271 270 269 269 268 268 268 268 268 269 269 270 271 272 272 273 273 272 272 272 272 272 271 271 271 271 271 271 270 270 269 269 269 269 269 269 269 269 269 269 269 270 270 270
265 266 267 268 269 270 271 271 271 271 271 271 272 272 273 274 275 276 276 277 277 278 278 278 279 279 280 280 280 280 280 280 280 280 280 280 280 280 280 280 279 279 278 277 277 276 276 275 275 274 273 272 271 270 270 269 268 268 267 267 266 266 265 266 266 267 268 269 270 271 271 271 271 271 271 271 271 270 270 270 270 270 269 268 268 268 268 268 267 267 267 268 268 268 268 268 268
266 267 269 269 270 271 271 271 270 270 270 271 272 273 274 275 276 277 277 277 278 278 278 279 279 280 280 280 280 280 280 281 280 280 280 280 280 280 280 279 279 279 278 278 277 276 276 275 274 273 273 272 271 271 270 269 268 267 267 266 266 265 264 263 263 263 264 265 266 267 268 268 268 268 268 268 268 268 268 268 268 269 269 269 268 267 267 267 267 267 267 267 266 266 266 266 267
268 269 270 271 271 270 270 270 270 270 271 272 273 274 275 276 277 277 277 278 278 278 278 279 280 280 280 280 280 281 281 281 281 281 281 281 280 280 280 280 280 279 279 278 278 277 276 276 275 274 273 272 271 271 270 270 269 268 267 266 266 266 266 265 264 264 263 263 264 265 266 267 267 267 267 267 266 266 266 266 266 266 268 268 269 269 268 268 268 268 268 268 267 267 266 266 266
269 270 271 271 271 270 270 270 271 271 271 272 273 275 276 276 277 277 278 279 279 279 279 280 280 280 281 281 281 282 282 282 282 282 282 282 282 282 282 281 281 280 280 279 279 278 277 276 276 275 274 273 272 271 270 270 270 270 269 268 267 266 266 267 267 267 267 267 266 267 267 267 267 267 267 267 266 266 266 265 265 265 266 266 267 267 268 268 268 268 268 268 269 269 269 269 268
270 271 272 272 271 271 270 271 271 271 272 273 274 275 276 277 277 278 279 279 279 279 280 280 280 281 281 282 282 282 283 283 283 283 283 283 283 283 282 282 282 282 281 280 280 279 278 277 277 276 275 275 274 273 272 271 270 270 270 270 269 268 267 266 266 267 267 268 268 268 269 269 269 268 268 268 267 267 266 265 264 264 264 265 265 265 265 265 265 266 267 267 268 269 270 270 270
270 271 272 272 272 271 270 271 271 271 272 272 274 276 277 277 277 278 279 279 280 280 280 280 281 282 283 283 283 283 283 284 284 284 284 284 283 283 282 282 282 282 282 281 281 280 280 279 278 278 277 276 275 275 274 273 272 271 270 270 270 269 269 268 267 267 267 267 267 268 268 269 269 270 270 269 269 268 267 265 264 264 264 264 265 266 266 265 265 265 266 266 267 268 269 270 270
270 271 272 272 272 271 271 270 270 271 271 272 274 275 277 277 277 278 279 280 280 281 281 281 282 283 284 284 284 284 284 283 283 284 284 284 283 282 282 283 283 283 283 283 283 283 283 282 282 281 280 279 278 277 276 275 274 273 272 271 270 270 270 270 269 268 268 267 267 267 267 268 268 269 269 270 270 269 268 266 265 264 263 264 265 266 267 267 267 267 267 267 267 268 268 269 269
269 270 271 272 272 271 271 271 271 271 272 273 274 275 277 277 278 279 280 281 282 282 281 282 283 284 284 285 285 284 284 284 283 284 283 283 282 282 283 284 284 285 285 286 286 286 286 286 285 284 284 282 281 280 279 278 277 276 275 273 272 272 271 270 270 270 269 268 268 267 267 267 267 267 268 268 269 269 268 266 265 264 263 263 264 265 267 267 268 268 268 268 269 269 269 269 269
269 270 271 271 271 271 271 271 271 272 274 275 276 277 277 278 280 281 281 281 282 282 282 283 283 284 284 284 285 284 284 283 284 284 283 282 283 284 285 286 286 287 288 288 288 288 288 287 287 287 286 285 284 282 281 280 279 278 277 276 274 273 272 271 271 270 270 269 269 268 268 267 267 267 267 267 267 267 267 266 265 264 263 263 263 264 265 265 266 267 267 267 267 268 268 268 269
269 271 270 270 271 271 272 272 272 274 275 277 278 278 278 280 281 281 281 282 282 282 282 283 284 283 284 284 284 283 283 283 283 283 283 284 285 286 287 288 289 289 290 290 290 290 289 289 289 289 289 288 287 285 283 282 280 279 278 277 276 275 274 273 272 271 270 270 269 269 269 268 268 267 267 267 267 266 266 266 265 265 264 264 264 264 264 264 265 265 266 266 267 267 267 268 268
269 269 269 270 271 271 272 272 273 275 277 278 278 278 279 280 282 281 281 282 282 282 282 283 283 283 283 284 283 282 282 282 282 283 283 284 286 287 288 290 291 291 292 292 292 292 292 292 292 292 292 291 291 289 287 285 283 281 280 278 277 276 276 275 273 272 272 271 270 269 268 268 268 268 267 267 267 267 267 266 266 266 266 266 266 266 266 266 266 267 267 267 267 268 268 269 270
269 269 269 270 270 271 271 272 275 276 277 278 278 278 279 280 281 281 282 282 282 282 283 283 283 284 284 283 283 282 283 282 282 283 284 285 286 287 289 291 292 292 293 293 294 294 295 295 296 296 296 295 295 294 292 290 288 285 283 281 280 278 277 276 275 274 273 272 271 271 270 269 268 267 267 267 266 266 266 266 266 266 266 266 267 267 267 267 267 267 267 267 267 268 268 268 269
269 269 269 269 270 271 271 273 275 276 277 278 277 278 280 280 281 282 283 283 283 282 283 284 284 285 284 283 283 284 283 283 283 284 285 286 287 288 290 291 292 292 293 294 295 296 297 297 298 298 298 298 297 297 296 294 292 290 288 286 284 283 281 279 278 276 274 273 272 272 271 270 269 268 267 266 266 266 265 265 264 264 264 265 265 265 266 266 267 267 267 268 268 268 268 268 268
269 269 269 269 270 270 271 273 274 276 277 277 276 277 279 280 281 282 283 284 284 283 284 284 285 285 284 284 284 284 283 284 284 285 285 286 287 288 289 290 291 292 293 294 295 296 297 298 298 298 298 298 298 298 297 297 295 294 292 290 289 288 286 285 283 280 278 275 273 272 271 270 269 268 267 267 266 266 265 265 265 264 264 263 263 264 264 264 265 266 267 267 267 268 268 268 268
269 269 270 270 270 270 271 273 274 275 276 275 275 275 276 278 280 281 282 284 284 283 284 284 284 284 284 284 285 284 284 284 285 285 285 286 286 287 288 289 290 291 293 294 295 297 297 298 298 298 298 298 298 298 298 297 296 295 293 292 291 291 290 289 287 285 283 280 277 274 272 271 270 269 268 268 267 266 266 266 265 265 265 264 264 264 264 264 264 264 265 265 266 266 267 267 268
269 269 270 270 271 271 271 273 274 274 275 275 274 274 274 276 278 279 281 283 283 283 284 284 283 283 283 284 284 284 284 284 285 285 285 286 286 287 287 288 289 290 292 294 296 296 297 297 297 297 298 298 298 298 298 297 296 295 294 293 293 292 291 290 289 287 285 283 280 278 276 274 272 270 269 268 268 267 267 267 266 266 266 266 266 266 265 265 265 265 265 265 265 266 266 267 267
268 269 270 270 270 271 271 271 272 273 274 274 274 274 273 274 275 278 280 282 282 283 284 283 282 282 282 282 282 283 283 284 284 284 285 285 286 287 287 288 289 291 293 294 296 296 296 296 297 297 298 298 298 298 298 297 296 295 294 293 293 292 292 290 289 287 285 283 282 280 279 277 275 274 272 270 269 268 268 267 267 267 267 267 267 267 267 267 267 267 267 267 267 267 267 267 268
268 269 269 269 269 270 271 270 271 272 274 274 274 274 272 272 274 276 279 280 283 284 284 283 282 282 282 282 283 283 283 283 284 284 285 286 286 287 288 289 290 292 294 295 295 296 296 296 297 297 298 298 298 298 298 297 296 295 294 294 293 293 292 291 289 287 285 283 282 281 279 278 277 276 274 273 272 270 269 268 267 267 267 267 267 267 267 267 267 267 267 267 268 268 268 268 268
268 269 269 269 269 270 271 271 272 272 273 274 275 275 272 269 272 275 276 279 282 283 283 283 283 283 283 284 284 284 284 284 284 285 285 286 287 288 289 290 292 293 294 295 295 295 296 296 297 297 298 298 298 297 297 296 295 295 294 294 294 293 293 291 289 288 286 284 282 280 279 278 276 275 274 273 273 272 271 270 269 268 268 267 267 267 267 267 267 267 267 267 268 268 268 268 269
267 267 268 269 269 270 270 271 272 273 273 274 276 276 273 269 270 273 276 278 279 279 281 282 283 283 284 284 285 285 285 285 285 285 286 287 289 289 290 291 293 294 294 295 295 295 296 296 297 297 298 298 297 297 296 296 295 295 295 295 295 294 293 292 290 289 287 285 283 282 280 278 277 275 274 273 272 271 271 270 270 269 269 268 268 267 267 267 267 267 267 267 267 268 268 268 268
267 267 268 269 270 270 271 271 272 272 273 274 276 275 274 272 271 273 275 276 276 277 279 281 282 283 284 284 285 285 285 285 285 286 287 288 289 290 291 292 293 294 295 295 295 296 296 296 297 297 297 297 298 297 297 296 296 296 296 297 296 296 295 293 292 290 288 286 285 283 281 279 278 276 275 273 272 271 270 270 269 269 269 268 268 268 268 268 268 268 268 268 268 268 268 268 268
268 268 269 270 270 271 272 272 273 273 273 274 274 274 274 275 274 275 275 273 273 275 277 279 281 283 283 284 284 284 285 285 286 286 287 288 289 290 291 292 293 294 295 296 296 296 296 297 297 297 298 298 299 298 297 297 298 298 299 299 298 298 297 296 294 293 291 289 287 285 283 281 279 277 275 274 273 272 271 270 269 269 268 268 268 268 268 268 268 268 268 268 268 268 268 268 268
270 270 270 270 271 272 273 273 274 274 275 275 273 273 275 276 276 275 274 273 274 275 277 279 280 281 283 283 284 284 284 285 286 286 287 288 289 290 291 293 294 296 296 296 296 296 297 298 298 298 299 300 299 299 298 299 300 300 301 300 300 299 298 297 296 294 293 291 289 287 285 284 282 280 278 276 274 273 272 271 270 269 269 268 268 268 267 267 267 267 268 268 268 268 268 268 268
270 271 271 272 272 273 273 274 275 275 275 275 274 274 275 278 278 275 273 273 273 275 278 279 280 281 282 283 283 284 284 284 285 286 287 288 290 291 292 294 295 296 296 296 296 297 298 298 298 299 300 300 299 299 299 300 301 301 302 301 301 300 299 298 297 295 293 291 290 289 287 286 284 283 281 279 278 276 274 273 272 271 270 269 269 268 268 267 267 267 267 267 267 267 268 268 268
271 271 272 272 273 274 274 274 274 275 275 275 275 274 276 278 278 276 275 275 275 276 278 279 280 281 281 282 283 283 283 284 285 286 287 288 290 292 293 294 295 295 296 296 297 297 298 297 298 299 299 298 298 299 300 301 301 302 302 301 301 301 300 298 296 295 294 293 291 290 289 287 286 285 283 282 280 279 277 276 275 273 272 271 270 269 269 268 268 268 267 267 267 267 267 267 268
272 272 273 273 274 274 274 274 274 275 275 275 275 275 276 277 276 276 276 278 279 279 278 278 280 280 281 282 282 281 282 283 284 285 287 289 291 292 293 294 294 295 295 296 296 296 296 296 297 298 298 297 298 299 300 300 301 301 301 301 301 301 300 298 296 295 294 293 293 292 291 289 288 287 285 284 282 281 279 278 277 276 274 273 272 271 270 269 269 268 268 268 268 268 268 268 268
272 273 274 274 275 275 274 274 274 275 275 275 276 277 277 277 276 276 278 279 280 279 278 279 280 281 281 281 281 281 281 282 284 286 288 289 291 291 292 293 293 294 295 295 295 295 295 296 297 297 296 297 298 299 299 300 301 301 301 301 301 301 300 299 297 296 296 295 294 294 293 291 290 289 287 286 284 282 280 279 277 276 275 274 273 272 271 270 270 269 269 269 269 268 268 268 269
272 273 274 274 274 274 275 275 275 276 276 277 278 278 278 278 278 278 279 279 278 277 277 278 279 280 281 280 280 280 281 283 285 287 288 289 290 291 292 293 293 294 294 294 293 293 294 295 296 296 296 298 298 298 299 301 301 302 302 302 302 302 301 299 298 298 298 298 297 296 295 294 293 291 289 287 285 284 282 280 278 277 275 274 273 273 272 271 271 270 270 270 270 270 270 270 270
272 273 273 273 273 274 276 277 277 278 278 278 278 279 278 278 279 280 280 279 278 277 277 277 278 279 279 279 279 280 282 284 286 287 288 289 290 291 292 293 293 293 293 292 292 293 295 295 295 296 297 298 299 299 301 302 302 302 303 303 303 302 301 300 299 299 299 299 299 298 297 296 295 293 291 289 286 285 283 281 280 278 277 275 274 273 272 272 272 271 271 271 271 271 271 271 271
273 273 273 274 275 276 278 278 279 279 279 279 279 278 277 278 279 279 278 279 279 278 278 278 278 278 278 278 279 281 283 284 285 286 288 289 290 291 292 292 293 292 292 292 293 294 295 295 296 297 298 299 299 300 302 302 303 303 303 303 302 301 300 300 300 300 300 300 300 300 299 298 296 295 293 291 289 287 284 282 281 279 278 277 275 274 273 273 272 272 272 272 272 272 272 272 272
274 274 274 276 277 278 278 279 279 279 279 279 279 278 277 277 278 277 277 278 278 277 277 278 278 278 278 279 281 282 283 285 286 287 288 290 291 291 292 292 292 291 292 293 294 295 295 296 297 298 299 299 300 301 302 302 303 303 303 303 302 301 300 300 301 301 301 301 301 301 300 299 298 297 295 294 292 290 288 285 283 281 280 278 277 276 275 274 274 273 273 272 272 273 273 273 273
274 275 276 276 277 277 277 277 278 279 279 279 278 276 276 277 277 277 277 277 275 274 275 276 277 278 278 279 281 282 284 285 286 287 289 290 291 292 292 291 291 292 293 294 295 295 296 297 298 299 299 300 300 301 302 302 302 303 303 302 301 300 300 300 301 301 302 302 302 302 301 301 300 299 298 296 295 292 290 288 286 284 283 281 280 279 277 276 276 275 274 274 274 273 273 273 273
274 274 275 275 276 276 275 276 277 278 279 279 278 276 276 277 277 277 277 275 273 274 275 276 277 278 278 279 281 282 283 285 286 287 289 290 291 291 290 290 291 292 293 294 294 295 296 297 298 298 299 300 300 301 301 302 302 302 302 301 300 299 300 301 301 302 302 303 303 303 303 303 303 302 301 300 298 296 294 292 289 287 286 284 283 282 280 279 278 277 276 276 275 275 275 274 274
272 272 273 274 274 274 275 275 276 277 278 278 279 278 277 277 277 276 275 273 273 274 276 277 277 277 278 279 281 282 283 284 286 288 289 290 290 289 289 291 292 293 293 293 294 295 296 297 297 298 299 299 300 300 301 301 302 302 301 300 299 299 300 300 301 302 303 304 304 304 304 305 305 304 303 302 301 299 297 296 293 291 289 287 286 284 283 282 280 279 278 277 277 276 276 276 276